Вернуться в каталог

STARLINK-32457

АктивенСвязьVLEO
NORAD 61717·PAYLOAD·🇺🇸 United States

Запущен Oct 30, 2024 с Cape Canaveral Space Force Station

Loading…

Ближайшие Пролёты (ближайшие 24 часа)

TLE

СвежийSource: CelesTrak SupGP

Эпоха: Sep 15, 2026, 03:25 UTC

1 61717C 24196L   26258.14284722  .00014194  00000+0  41922-3 0  2584
2 61717  53.1593 298.8567 0001044  76.6460  74.5325 15.34394357    14

Отслеживайте STARLINK-32457 в реальном времени с AllMySat

Download on the App Store